Tracking 17842 objects as of 30-August-2016
HD Live streaming from Space Station
objects crossing your sky now

GALAXY 14

Track GALAXY 14 now!
GALAXY 14 is classified as:


NORAD ID: 28790
Int'l Code: 2005-030A
Perigee: 35,783.3 km
Apogee: 35,803.3 km
Inclination: 0.1 °
Period: 1,436.1 minutes
Semi major axis: 42164 km
RCS: 19.9526 m2 (large)
Launch date: August 13, 2005
Source: United States (US)
Launch site: TYURATAM MISSILE AND SPACE COMPLEX (TTMTR)

24 C-band transponders; North America, Caribbean.
Your satellite tracking list
Your tracking list is empty





NASA's NSSDC Master Catalog

Two Line Element Set (TLE):
1 28790U 05030A   16243.13856150  .00000004  00000-0  00000+0 0  9992
2 28790   0.0583 293.4985 0002367 233.5840  96.5432  1.00273267 40424
Source of the keplerian elements: AFSPC

N2YO: 490